Weather History for Langdon, ND

Change the Weather History Date:

Tuesday, February 18, 2014

  Actual Average (KDVL) Record (KDVL)
Temperature  
Mean Temperature 22 °F -  
Max Temperature 33 °F 22 °F 46 °F (1954)
Min Temperature 10 °F 4 °F -35 °F (1966)
Degree Days  
Heating Degree Days 44    
Moisture  
Dew Point 17 °F    
Average Humidity 82    
Maximum Humidity 93    
Minimum Humidity 64    
Precipitation  
Precipitation 0.00 in - - ()
Sea Level Pressure  
Sea Level Pressure 29.52 in    
Wind  
Wind Speed 13 mph (West)    
Max Wind Speed 28 mph    
Max Gust Speed 32 mph    
Visibility 10 miles    
Events      
Averages and records for this station are not official NWS values.
T = Trace of Precipitation, MM = Missing Value Source: NWS Daily Summary

Daily Weather History Graph

Daily Weather History Graph

Search for Another Location

Airport:

Trip Planner

Search our weather history database for the weather conditions in past years. The results will help you decide how hot, cold, wet, or windy it might be!

Date:

Astronomy

Feb. 18, 2014 Rise Set
Actual Time 7:36 AM CST 5:59 PM CST
Civil Twilight 7:03 AM CST 6:31 PM CST
Nautical Twilight 6:27 AM CST 7:08 PM CST
Astronomical Twilight 5:50 AM CST 7:45 PM CST
Moon 10:18 PM CST (2/18) 8:48 AM CST (2/18)
Length of Visible Light 11h 28m
Length of Day
10h 23m
Waning Gibbous, 87% of the Moon is Illuminated
Feb 18
Waning Gibbous
Feb 22
Last Quarter
Mar 1
New
Mar 8
First Quarter
Mar 16
Full

Hourly Weather History & Observations

Time (CST) Temp. Windchill Dew Point Humidity Pressure Visibility Wind Dir Wind Speed Gust Speed Precip Events Conditions
12:15 AM 23.0 °F 11.1 °F 19.4 °F 86% 29.39 in 10.0 mi SW 12.7 mph - N/A   Clear
12:35 AM 23.0 °F 10.1 °F 19.4 °F 86% 29.39 in 10.0 mi WSW 15.0 mph - N/A   Clear
12:55 AM 24.8 °F 13.4 °F 21.2 °F 86% 29.39 in 10.0 mi WSW 12.7 mph - N/A   Clear
1:15 AM 24.8 °F 14.0 °F 19.4 °F 80% 29.39 in 10.0 mi SW 11.5 mph - N/A   Clear
1:35 AM 21.2 °F 10.1 °F 17.6 °F 86% 29.39 in 10.0 mi WSW 10.4 mph - N/A   Clear
1:55 AM 19.4 °F 7.2 °F 15.8 °F 86% 29.40 in 10.0 mi WSW 11.5 mph - N/A   Clear
2:15 AM 19.4 °F 7.2 °F 15.8 °F 86% 29.40 in 10.0 mi WSW 11.5 mph - N/A   Clear
2:35 AM 19.4 °F 6.0 °F 17.6 °F 93% 29.39 in 10.0 mi WSW 13.8 mph - N/A   Clear
2:55 AM 19.4 °F 8.6 °F 15.8 °F 86% 29.40 in 10.0 mi West 9.2 mph - N/A   Clear
3:15 AM 15.8 °F 2.7 °F 14.0 °F 93% 29.40 in 10.0 mi WSW 11.5 mph - N/A   Clear
3:35 AM 15.8 °F 2.1 °F 14.0 °F 93% 29.40 in 10.0 mi WSW 12.7 mph - N/A   Clear
3:55 AM 15.8 °F 2.7 °F 14.0 °F 93% 29.40 in 10.0 mi West 11.5 mph - N/A   Clear
4:15 AM 14.0 °F 3.9 °F 12.2 °F 93% 29.40 in 10.0 mi West 6.9 mph - N/A   Clear
4:35 AM 15.8 °F 4.2 °F 14.0 °F 93% 29.40 in 10.0 mi West 9.2 mph - N/A   Clear
4:55 AM 15.8 °F 2.1 °F 12.2 °F 86% 29.41 in 10.0 mi West 12.7 mph - N/A   Clear
5:15 AM 14.0 °F 2.9 °F 10.4 °F 86% 29.42 in 10.0 mi West 8.1 mph - N/A   Clear
5:35 AM 14.0 °F 1.2 °F 10.4 °F 86% 29.42 in 10.0 mi WNW 10.4 mph - N/A   Clear
5:55 AM 15.8 °F 5.1 °F 14.0 °F 93% 29.42 in 10.0 mi WNW 8.1 mph - N/A   Clear
6:15 AM 14.0 °F 2.0 °F 10.4 °F 86% 29.43 in 10.0 mi West 9.2 mph - N/A   Clear
6:35 AM 14.0 °F 2.0 °F 10.4 °F 86% 29.43 in 10.0 mi West 9.2 mph - N/A   Clear
6:55 AM 12.2 °F -0.2 °F 10.4 °F 92% 29.44 in 10.0 mi WNW 9.2 mph - N/A   Clear
7:15 AM 14.0 °F 1.2 °F 10.4 °F 86% 29.44 in 10.0 mi WNW 10.4 mph - N/A   Clear
7:35 AM 10.4 °F -2.4 °F 8.6 °F 92% 29.45 in 10.0 mi West 9.2 mph - N/A   Clear
7:55 AM 10.4 °F -2.4 °F 6.8 °F 85% 29.46 in 10.0 mi WNW 9.2 mph - N/A   Clear
8:15 AM 14.0 °F 2.0 °F 12.2 °F 93% 29.46 in 10.0 mi WNW 9.2 mph - N/A   Clear
8:35 AM 17.6 °F 5.7 °F 14.0 °F 86% 29.47 in 10.0 mi NW 10.4 mph - N/A   Clear
8:55 AM 17.6 °F 5.0 °F 15.8 °F 93% 29.48 in 10.0 mi WNW 11.5 mph - N/A   Clear
9:15 AM 21.2 °F 8.9 °F 17.6 °F 86% 29.49 in 10.0 mi West 12.7 mph - N/A   Clear
9:35 AM 17.6 °F 5.0 °F 14.0 °F 86% 29.51 in 10.0 mi WSW 11.5 mph - N/A   Clear
9:55 AM 19.4 °F 6.0 °F 15.8 °F 86% 29.52 in 10.0 mi West 13.8 mph - N/A   Clear
10:15 AM 23.0 °F 10.6 °F 17.6 °F 80% 29.52 in 10.0 mi WNW 13.8 mph - N/A   Clear
10:35 AM 23.0 °F 11.7 °F 17.6 °F 80% 29.53 in 10.0 mi West 11.5 mph - N/A   Clear
10:55 AM 24.8 °F 14.0 °F 17.6 °F 74% 29.53 in 10.0 mi WNW 11.5 mph - N/A   Clear
11:15 AM 26.6 °F 15.2 °F 19.4 °F 74% 29.54 in 10.0 mi WNW 13.8 mph - N/A   Clear
11:35 AM 26.6 °F 15.7 °F 19.4 °F 74% 29.54 in 10.0 mi WNW 12.7 mph - N/A   Clear
11:55 AM 26.6 °F 17.5 °F 19.4 °F 74% 29.55 in 10.0 mi WNW 9.2 mph - N/A   Clear
12:15 PM 28.4 °F 17.0 °F 19.4 °F 69% 29.54 in 10.0 mi WNW 15.0 mph - N/A   Clear
12:35 PM 28.4 °F 17.5 °F 21.2 °F 74% 29.55 in 10.0 mi WNW 13.8 mph - N/A   Clear
12:55 PM 30.2 °F 18.5 °F 21.2 °F 69% 29.55 in 10.0 mi WNW 17.3 mph - N/A   Clear
1:15 PM 32.0 °F 21.6 °F 21.2 °F 64% 29.56 in 10.0 mi WNW 15.0 mph - N/A   Clear
1:35 PM 32.0 °F 20.8 °F 21.2 °F 64% 29.56 in 10.0 mi WNW 17.3 mph - N/A   Clear
1:55 PM 32.0 °F 21.6 °F 23.0 °F 69% 29.56 in 10.0 mi WNW 15.0 mph 21.9 mph N/A   Clear
2:15 PM 32.0 °F 23.0 °F 23.0 °F 69% 29.56 in 10.0 mi WNW 11.5 mph - N/A   Clear
2:35 PM 32.0 °F 22.1 °F 23.0 °F 69% 29.57 in 10.0 mi West 13.8 mph - N/A   Clear
2:55 PM 33.8 °F 24.8 °F 24.8 °F 70% 29.57 in 10.0 mi West 12.7 mph - N/A   Clear
3:15 PM 32.0 °F 22.1 °F 24.8 °F 75% 29.58 in 10.0 mi WSW 13.8 mph - N/A   Clear
3:35 PM 32.0 °F 21.6 °F 24.8 °F 75% 29.59 in 10.0 mi West 15.0 mph - N/A   Clear
3:55 PM 32.0 °F 22.5 °F 23.0 °F 69% 29.59 in 10.0 mi WSW 12.7 mph - N/A   Clear
4:15 PM 30.2 °F 18.9 °F 23.0 °F 75% 29.59 in 10.0 mi WSW 16.1 mph - N/A   Clear
4:35 PM 28.4 °F 16.6 °F 23.0 °F 80% 29.59 in 10.0 mi WSW 16.1 mph - N/A   Clear
4:55 PM 28.4 °F 16.2 °F 21.2 °F 74% 29.59 in 10.0 mi WSW 17.3 mph - N/A   Clear
5:15 PM 26.6 °F 12.0 °F 19.4 °F 74% 29.60 in 10.0 mi West 23.0 mph - N/A   Clear
5:35 PM 26.6 °F 10.8 °F 21.2 °F 80% 29.60 in 10.0 mi West 27.6 mph 32.2 mph N/A   Clear
5:55 PM 26.6 °F 13.4 °F 19.4 °F 74% 29.62 in 10.0 mi West 18.4 mph - N/A   Clear
6:15 PM 24.8 °F 11.9 °F 19.4 °F 80% 29.63 in 10.0 mi West 16.1 mph - N/A   Clear
6:35 PM 23.0 °F 9.6 °F 19.4 °F 86% 29.63 in 10.0 mi West 16.1 mph - N/A   Clear
6:55 PM 23.0 °F 9.2 °F 17.6 °F 80% 29.64 in 10.0 mi West 17.3 mph - N/A   Clear
7:15 PM 23.0 °F 9.6 °F 17.6 °F 80% 29.64 in 10.0 mi West 16.1 mph - N/A   Clear
7:35 PM 21.2 °F 6.4 °F 17.6 °F 86% 29.64 in 10.0 mi West 18.4 mph - N/A   Clear
7:55 PM 23.0 °F 8.7 °F 17.6 °F 80% 29.64 in 10.0 mi West 18.4 mph - N/A   Clear
8:15 PM 21.2 °F 7.3 °F 15.8 °F 80% 29.64 in 10.0 mi WSW 16.1 mph - N/A   Clear
8:35 PM 19.4 °F 3.6 °F 15.8 °F 86% 29.64 in 10.0 mi West 19.6 mph - N/A   Clear
8:55 PM 19.4 °F 4.1 °F 15.8 °F 86% 29.63 in 10.0 mi WSW 18.4 mph - N/A   Clear
9:15 PM 17.6 °F 2.2 °F 14.0 °F 86% 29.64 in 10.0 mi WSW 17.3 mph - N/A   Clear
9:35 PM 17.6 °F 3.7 °F 14.0 °F 86% 29.64 in 10.0 mi WSW 13.8 mph - N/A   Clear
9:55 PM 17.6 °F 0.9 °F 14.0 °F 86% 29.64 in 10.0 mi West 20.7 mph - N/A   Clear
10:15 PM 21.2 °F 6.0 °F 15.8 °F 80% 29.63 in 10.0 mi West 19.6 mph - N/A   Clear
10:35 PM 19.4 °F 3.2 °F 15.8 °F 86% 29.63 in 10.0 mi West 20.7 mph - N/A   Clear
10:55 PM 19.4 °F 5.0 °F 14.0 °F 80% 29.63 in 10.0 mi West 16.1 mph - N/A   Clear
11:55 PM 15.8 °F 2.7 °F 10.4 °F 79% 29.63 in 10.0 mi West 11.5 mph - N/A   Clear